Weather History for West Palm Beach, FL

Change the Weather History Date:

Friday, November 15, 2013

  Actual Average Record
Temperature  
Mean Temperature 78 °F 73 °F  
Max Temperature 82 °F 80 °F 88 °F (2008)
Min Temperature 74 °F 66 °F 45 °F (1969)
Degree Days  
Heating Degree Days 0 0  
Month to date heating degree days 0 0  
Since 1 July heating degree days 0 1  
Cooling Degree Days 13 8  
Month to date cooling degree days 204 137  
Year to date cooling degree days 4051 3758  
Growing Degree Days 28 (Base 50)    
Moisture  
Dew Point 63 °F    
Average Humidity 59    
Maximum Humidity 64    
Minimum Humidity 54    
Precipitation  
Precipitation 0.00 in 0.18 in 3.04 in (1994)
Month to date precipitation 0.68 2.67  
Year to date precipitation 58.54 56.87  
Snow  
Snow 0.00 in - - ()
Month to date snowfall 0.0  
Since 1 July snowfall 0.0  
Since 1 September snowfall 0.0  
Snow Depth 0.00 in    
Sea Level Pressure  
Sea Level Pressure 30.10 in    
Wind  
Wind Speed 15 mph (East)    
Max Wind Speed 22 mph    
Max Gust Speed 26 mph    
Visibility 10 miles    
Events      
T = Trace of Precipitation, MM = Missing Value Source: NWS Daily Summary

Daily Weather History Graph

Daily Weather History Graph

Search for Another Location

Airport:

Trip Planner

Search our weather history database for the weather conditions in past years. The results will help you decide how hot, cold, wet, or windy it might be!

Date:

Astronomy

Nov. 15, 2013 Rise Set
Actual Time 6:39 AM EST 5:29 PM EST
Civil Twilight 6:15 AM EST 5:54 PM EST
Nautical Twilight 5:47 AM EST 6:22 PM EST
Astronomical Twilight 5:19 AM EST 6:50 PM EST
Moon 4:18 PM EST (11/15) 4:44 AM EST (11/15)
Length of Visible Light 11h 38m
Length of Day
10h 49m
Waxing Gibbous, 96% of the Moon is Illuminated
Nov 15
Waxing Gibbous
Nov 17
Full
Nov 25
Last Quarter
Dec 2
New
Dec 9
First Quarter

Hourly Weather History & Observations

Time (EST) Temp. Heat Index Dew Point Humidity Pressure Visibility Wind Dir Wind Speed Gust Speed Precip Events Conditions
12:53 AM 75.0 °F - 57.9 °F 55% 30.14 in 10.0 mi East 19.6 mph 24.2 mph N/A   Mostly Cloudy
1:53 AM 75.0 °F - 57.9 °F 55% 30.13 in 10.0 mi East 17.3 mph - N/A   Overcast
2:53 AM 73.9 °F - 59.0 °F 59% 30.11 in 10.0 mi East 15.0 mph - N/A   Mostly Cloudy
3:53 AM 75.0 °F - 60.1 °F 60% 30.10 in 10.0 mi East 16.1 mph 21.9 mph N/A   Scattered Clouds
4:53 AM 75.0 °F - 60.1 °F 60% 30.10 in 10.0 mi East 15.0 mph - N/A   Mostly Cloudy
5:53 AM 75.0 °F - 60.1 °F 60% 30.10 in 10.0 mi East 15.0 mph - N/A   Mostly Cloudy
6:53 AM 75.0 °F - 62.1 °F 64% 30.12 in 10.0 mi East 16.1 mph - N/A   Mostly Cloudy
7:53 AM 75.9 °F - 62.1 °F 62% 30.13 in 10.0 mi East 19.6 mph 24.2 mph N/A   Mostly Cloudy
8:53 AM 77.0 °F - 63.0 °F 62% 30.15 in 10.0 mi East 16.1 mph - N/A   Mostly Cloudy
9:53 AM 79.0 °F - 64.0 °F 60% 30.16 in 10.0 mi East 13.8 mph - N/A   Mostly Cloudy
10:53 AM 79.0 °F - 64.0 °F 60% 30.15 in 10.0 mi East 19.6 mph - N/A   Mostly Cloudy
11:53 AM 81.0 °F 82.5 °F 64.0 °F 56% 30.12 in 10.0 mi East 19.6 mph - N/A   Mostly Cloudy
12:53 PM 80.1 °F 81.7 °F 64.0 °F 58% 30.10 in 10.0 mi East 16.1 mph - N/A   Overcast
1:53 PM 80.1 °F 81.7 °F 64.0 °F 58% 30.07 in 10.0 mi East 16.1 mph 21.9 mph N/A   Mostly Cloudy
2:53 PM 80.1 °F 81.5 °F 63.0 °F 56% 30.05 in 10.0 mi East 17.3 mph - N/A   Mostly Cloudy
3:53 PM 79.0 °F - 64.0 °F 60% 30.05 in 10.0 mi East 13.8 mph - N/A   Mostly Cloudy
4:53 PM 79.0 °F - 64.9 °F 62% 30.05 in 10.0 mi East 13.8 mph - N/A   Mostly Cloudy
5:53 PM 78.1 °F - 64.0 °F 62% 30.05 in 10.0 mi East 15.0 mph - N/A   Overcast
6:53 PM 78.1 °F - 64.9 °F 64% 30.05 in 10.0 mi East 12.7 mph - N/A   Overcast
7:53 PM 78.1 °F - 64.0 °F 62% 30.07 in 10.0 mi East 12.7 mph - N/A   Mostly Cloudy
8:53 PM 78.1 °F - 64.0 °F 62% 30.08 in 10.0 mi East 12.7 mph - N/A   Mostly Cloudy
9:53 PM 78.1 °F - 64.0 °F 62% 30.09 in 10.0 mi East 10.4 mph - N/A   Mostly Cloudy
10:53 PM 78.1 °F - 64.9 °F 64% 30.08 in 10.0 mi East 11.5 mph - N/A   Mostly Cloudy
11:53 PM 78.1 °F - 66.0 °F 66% 30.08 in 10.0 mi East 12.7 mph - N/A   Mostly Cloudy